Back to catalog

FENGYUN 1C DEB

AliveSSO
NORAD 31255·DEBRIS·🇨🇳 China

Launched May 10, 1999 from Taiyuan Satellite Launch Center

Loading…

Next Passes (next 24 hours)

TLE

FreshSource: Space-Track

Epoch: Sep 14, 2026, 11:57 UTC

1 31255U 99025BMM 26257.49853832  .00000320  00000-0  15122-3 0  9994
2 31255  99.3142  89.6085 0268706 295.2228  62.1308 14.10178789  6238

Track FENGYUN 1C DEB in real time with AllMySat

Download on the App Store